www.pogodaiklimat.ru

Погода и климат >> Архив погоды >> Аргентина >> Корриентес


ПОГОДА в Корриентесе

  • Прогноз погоды в Корриентесе
  • Монитор погоды в Корриентесе

АРХИВ ПОГОДЫ в Корриентесе

Время (UTC), дата Ветер
(напр.,м/с)
 
Видим.   Явления Облачность Т
(С)
Тd
(С)
f
(%)
Тe
(С)
Тes
(С)
Комфортность P
(гПа)
Po
(гПа)
Тmin
(С)
Tmax
(С)
R
(мм)
R24
(мм)
S
(см)
12 13.05 Ю 3 10 км 10/10 240 м
[St]
+17.1 +14.3 84 +17 +17 1013.7 1006.4
15 13.05 Ю 4 10 км 4/4 450 м
[Frnb Cs]
+19.8 +12.2 62 +21 +25 комфорт 1023.8 1016.4
18 13.05 Ю 4 10 км 4/3 600 м
[Sc Cs]
+21.3 +11.3 53 +23 +26 комфорт 1022.8 1015.4
21 13.05 Ю 4 10 км 1/1 600 м
[Sc]
+18.8 +12.0 65 +19 +19 1023.3 1016.0
00 14.05 Ю 1 10 км ясно +14.7 +12.2 85 +15 +15 1025.2 1017.7 +14.1 +21.5
03 14.05 штиль 0 9000 м дымка {туман} ясно +12.9 +11.4 91 +12 +12 1025.9 1018.4
06 14.05 штиль 0 10 км {туман} ясно +12.1 +10.2 88 +12 +12 1025.7 1018.4
09 14.05 штиль 0 10 км местами туман поземный ясно +11.1 +9.9 92 +10 +10 1025.2 1017.7
12 14.05 Ю 4 10 км {туман} ясно +14.2 +11.2 82 +13 +14 1026.8 1019.3 +11.1 +14.7
15 14.05 Ю 7 10 км ясно +20.4 +10.2 52 +22 +25 комфорт 1026.4 1018.9
18 14.05 Ю 4 10 км 1/1 750 м
[Cu hum]
+22.2 +11.8 52 +25 +29 комфорт 1023.8 1016.4
21 14.05 Ю 3 10 км ясно +20.4 +13.1 63 +23 +23 комфорт 1023.5 1016.0
00 15.05 Ю 3 10 км ясно +15.4 +13.1 86 +15 +15 1024.3 1016.8 +14.0 +23.0
03 15.05 Ю 3 10 км ясно +14.4 +13.3 93 +14 +14 1024.8 1017.4
06 15.05 Ю 3 6000 м дымка ясно +12.7 +11.8 94 +11 +11 1023.7 1016.4
09 15.05 Ю 3 6000 м дымка ясно +12.4 +11.7 95 +11 +11 1023.6 1016.2
12 15.05 ЮВ 3 8000 м дымка 5/5 150 м
[St]
+14.8 +14.1 96 +14 +15 1025.3 1017.8 +12.0 +15.6
15 15.05 ЮВ 2 10 км 4/4 360 м
[St]
+20.3 +16.0 76 +24 +29 комфорт 1025.1 1017.7
18 15.05 ЮВ 4 10 км 4/4 660 м
[Sc]
+22.5 +14.6 61 +26 +29 жарко 1022.2 1014.8
21 15.05 ЮВ 3 10 км 1/1 600 м
[Cu hum]
+20.7 +15.2 71 +24 +24 комфорт 1021.9 1014.5
00 16.05 ЮВ 3 10 км ясно +16.4 +14.7 90 +16 +16 1022.9 1015.4 +14.6 +23.4
03 16.05 Ю 3 10 км ясно +15.4 +14.4 94 +15 +15 1022.5 1015.2
06 16.05 Ю 2 10 км ясно +14.2 +15 +15 1021.3 1013.8
09 16.05 ЮВ 3 7000 м дымка ясно +13.6 +12.9 96 +13 +13 1020.8 1013.4
12 16.05 В 4 10 км ясно +17.0 +15.7 92 +17 +18 1021.7 1014.4 +13.3 +17.0
15 16.05 В 4 10 км ясно +22.7 +17.3 72 +28 +34 душно 1021.8 1014.4
18 16.05 С 1 10 км ясно +25.5 +16.2 56 +29 +37 душно 1018.8 1011.4
21 16.05 СВ 2 10 км ясно +23.9 +16.5 63 +27 +27 жарко 1018.4 1011.0
00 17.05 В 2 10 км 1/0
[Ac trans]
+19.7 +17.1 85 +23 +23 комфорт 1018.7 1011.3 +17.0 +26.0
03 17.05 В 2 10 км ясно +18.4 +15.9 85 +19 +19 1017.8 1010.5
06 17.05 В 2 10 км 1/0
[Cs]
+16.9 +15.6 92 +17 +17 1017.0 1009.7
09 17.05 В 3 10 км 4/1 1140 м
[Sc Ac trans Ci]
+17.5 +16.2 92 +18 +18 1016.5 1009.2
12 17.05 В 3 10 км 1/0
[Ci fib]
+19.0 +17.2 89 +21 +22 комфорт 1017.3 1010.0 +15.2 +19.7
15 17.05 СВ 6 10 км 3/1 750 м
[Cu hum Ci]
+24.0 +17.0 65 +28 +31 душно 1016.4 1009.0
18 17.05 С 6 10 км 4/3 900 м
[Cu hum Ci]
+25.6 +17.4 61 +30 +32 душно 1013.6 1006.4
21 17.05 В 3 10 км 4/1 900 м
[Sc diur, vesp Cs]
+24.0 +17.5 67 +28 +28 душно 1012.5 1005.3
00 18.05 В 4 10 км ясно +21.3 +17.8 80 +25 +25 комфорт 1012.9 1005.6 +18.8 +26.1
03 18.05 СВ 2 10 км ясно +19.7 +18.1 90 +23 +23 комфорт 1013.5 1006.2
06 18.05 В 3 10 км ясно +18.9 +17.9 94 +21 +21 комфорт 1012.4 1005.2
09 18.05 В 4 10 км 1/0
[Ac cast]
+18.7 +17.7 94 +20 +20 1012.5 1005.3
12 18.05 СВ 4 10 км 6/5 1200 м
[Cu Sc Ac trans]
+22.0 +18.9 83 +27 +28 душно 1014.4 1007.2 +18.2 +22.0
15 18.05 СВ 5 10 км 1/0
[Ac cast]
+25.6 +18.8 66 +31 +36 очень
душно
1015.1 1007.8
18 18.05 С 3 10 км 5/3 1050 м
[Cu med, cong Ac trans Cc]
+27.3 +19.9 64 +33 +37 очень
душно
1013.6 1006.4
21 18.05 СВ 2 10 км 9/5 1200 м
[Cb calv Ac As]
+24.8 +19.8 74 +30 +30 душно 1013.8 1006.6
00 19.05 В 1 10 км 9/1 1200 м
[St Ac As]
+22.7 +20.3 86 +29 +29 очень
душно
1015.4 1008.2 +21.4 +27.5
03 19.05 штиль 0 10 км {дождь} 9/3 900 м
[Sc Ac As]
+21.4 +19.9 91 +26 +26 душно 1015.7 1008.5
06 19.05 ЮВ 2 10 км зарница {дождь} 5/1 1500 м
[Cb cap Ac trans Cs]
+20.0 +19.2 95 +24 +24 комфорт 1014.1 1006.9 0.0
09 19.05 Ю 4 8000 м гроза, ливневой дождь 10/4 210 м
[Cb cap As op]
+20.4 +19.9 97 +25 +25 комфорт 1013.6 1006.4
12 19.05 ЮВ 4 4000 м гроза, ливневой дождь 10/8 150 м
[Cb cap As op]
+20.0 +19.4 96 +23 +23 комфорт 1015.4 1008.1 +19.6 +22.7 8
15 19.05 0 слаб. дождь {гроза} н/о +18.7 1015.6 1008.2
18 19.05 СВ 3 7000 м гроза без осадков туман 10/8 150 м
[Cb cap As op]
+19.3 +18.8 97 +22 +22 комфорт 1014.0 1006.6 9
21 19.05 СВ 3 10 км {гроза} 9/5 240 м
[St Ac cuf]
+20.6 +19.5 93 +25 +25 комфорт 1012.9 1005.6
00 20.05 В 2 8000 м слаб. дождь {гроза} 10/9 210 м
[St As op]
+20.0 +19.5 97 +24 +24 комфорт 1013.6 1006.2 +19.1 +21.0 0.5
03 20.05 В 2 10 км в посл. час морось {дождь} 10/10 180 м
[St]
+19.8 +19.3 97 +24 +24 комфорт 1013.6 1006.2
06 20.05 СВ 2 10 км {дождь, морось} 10/10 180 м
[St]
+20.2 +19.7 97 +25 +25 комфорт 1012.6 1005.3 7
09 20.05 СВ 3 10 км 10/10 150 м
[St]
+20.2 +19.7 97 +24 +24 комфорт 1011.6 1004.2

 

Местоположение метеостанции Корриентес (Аргентина): широта -27.45 долгота -58.76 высота над уровнем моря 62 м.

В архиве по умолчанию представлена погода в Корриентесе за последнюю неделю. Архивные данные за месяц целиком и за предыдущие месяцы, начиная с января 2011 года, Вы можете получить, выбрав интересующий диапазон дат из раскрывающегося списка и нажав кнопку "Ввод!".


*Определитесь, кто Вы:
робот инопланетянин человек

Внимание! Время в таблицах - всемирное. Для получения местного времени необходимо прибавить поправку, которая равна -3 ч.

Смотрите также архив погоды в соседних городах и на ближайших метеорологических станциях:

Погода в Ресистенсии (Аргентина) (29 км)
Погода в Пиларе (Парагвай) (80 км)
Погода в Формосе (Аргентина) (149 км)
Погода в Сан Хуан Батистута (Парагвай) (182 км)
Погода в Пресиденсиа-Роке-Саэнс-Пеньи (Аргентина) (188 км)
Погода в Реконкисте (Аргентина) (213 км)
Погода в Куйкуйо (Парагвай) (223 км)
Погода в Парагуари (Парагвай) (259 км)
Погода в Асунсьоне (Парагвай) (275 км)
Погода в Посадасе (Аргентина) (277 км)

Пояснения к столбцам:

Ветер - указаны скорость ветра в м/с - средняя за 10 мин, порывы в срок и между сроками (в фигурных скобках) и направление, откуда дует ветер: С - северный, СВ - северо-восточный, В - восточный, ЮВ - юго-восточный, Ю - южный, ЮЗ - юго-западный, З - западный, СЗ - северо-западный.
Видимость - горизонтальная дальность видимости в метрах или километрах. При видимости от 1 до 10 км при отсутствии осадков обычно наблюдается дымка, при ухудшении видимости до 1 км и менее - туман. В сухую погоду видимость может ухудшаться дымом, пылью или мглою.
Явления - указаны атмосферные явления, наблюдавшиеся в срок или в последний час перед сроком; фигурными скобками обозначены явления, наблюдавшиеся между сроками (за 1-3 часа до срока); квадратными скобками обозначены град или гололедные отложения с указанием их диаметра в мм.
Облачность - указаны через наклонную черту общая и нижняя облачность в баллах и высота нижней границы облаков в метрах; квадратными скобками обозначены формы облаков: Ci - перистые, Cs - перисто-слоистые, Cc - перисто-кучевые, Ac - высококучевые, As - высокослоистые, Sc - слоисто-кучевые, Ns - слоисто-дождевые, Cu - кучевые, Cb - кучево-дождевые. Подробнее классификацию облаков см. в Атласе облаков (PDF).
T - Температура воздуха - температура, измеренная на высоте 2 м над землей.
Td - Температура точки росы - температура, при понижении до которой содержащийся в воздухе водяной пар достигнет насыщения.
f - Относительная влажность воздуха - влажноcть воздуха, измеренная на высоте 2 м над землей.
Te - Эффективная температура - температура, которую ощущает одетый по сезону человек в тени. Характеристика душности погоды. При расчете учитывается влияние влажности воздуха и скорости ветра на теплоощущения человека.
Tes - Эффективная температура на солнце - температура, которую ощущает человек, с поправкой на солнечный нагрев. Характеристика знойности погоды. Зависит от высоты солнца над горизонтом, облачности и скорости ветра. Ночью, в пасмурную погоду, а также при ветре 12 м/с и более поправка равна нулю.
P - Атмосферное давление - приведенное к уровню моря атмосферное давление.
Po - Атмосферное давление - измеренное на уровне метеостанции атмосферное давление.
Tmin - Минимальная температура - минимум температуры воздуха на высоте 2 м над землей.
Tmax - Максимальная температура - максимум температуры воздуха на высоте 2 м над землей.
R - Количество осадков - Количество выпавших осадков за период времени, мм. При наведении курсора мыши на число - период времени, за который выпало указанное количество осадков.
R24 - Количество осадков - Количество выпавших осадков за 24 часа, мм.
S - Снежный покров - Высота снежного покрова, см. При наведении курсора мыши на число - состояние снежного покрова и степень покрытия местности в баллах.